Regional Weather Roundup
Issued by NWS Sterling, VA

Home | Current Version | Previous Version | Text Only | Print | Product List | Glossary On
Versions: 1 2 3 4 5 6 7 8 9 10 11 12 13 14 15 16 17 18 19 20 21 22 23 24 25 26 27 28 29 30 31 32 33 34 35 36 37 38 39 40 41 42 43 44 45 46 47 48 49 50
000
ASUS41 KLWX 011710
RWRLWX

REGIONAL WEATHER ROUNDUP
NATIONAL WEATHER SERVICE BALTIMORE MD/WASHINGTON DC
100 PM EDT WED JUL 01 2015

Note: "FAIR" indicates few or no clouds below 12,000 feet
with no significant weather and/or obstructions to visibility.
 TC=TEMPERATURE CELSIUS

 * =Non NWS site. Station does not report precipitation (e.g. rain,
    snow, etc.), thunder, or fog.

DCZ001-MDZ009-015-VAZ040>042-051-053>054-011800-
WASHINGTON METRO

CITY           SKY/WX    TMP DP  RH WIND       PRES   REMARKS
WASHINGTON NAT MOSUNNY   86  64  47 SW9       29.88S
DULLES         PTSUNNY   81  63  54 SW7G16    29.89R
ANDREWS AFB    MOSUNNY   81  68  63 SW13      29.88R
FT BELVOIR     SUNNY     82  68  62 S6        29.88S
QUANTICO       MOSUNNY   83  65  54 S8        29.89S
COLLEGE PARK*  MOSUNNY   82  63  51 W6        29.87S
LEESBURG*      CLOUDY    81  66  61 W6        29.89S
MANASSAS*      SUNNY     82  64  54 SW7       29.89R
GAITHERSBURG*  MOSUNNY   81  64  57 W10G20    29.92S

$$

MDZ006>007-011-014-011800-
BALTIMORE METRO

CITY           SKY/WX    TMP DP  RH WIND       PRES   REMARKS
BWI AIRPORT    MOSUNNY   83  67  58 W10G18    29.85S
MD SCIENCE CTR   N/A     84  63  49 MISG      29.87S
MARTIN STATE   SUNNY     82  66  57 SW8       29.87S
ANNAPOLIS      SUNNY     83  63  50 VRB3      29.86S
FORT MEADE*    SUNNY     81  66  61 W13       29.89S

$$

MDZ012-015-019>023-011800-
MARYLAND EASTERN SHORE

CITY           SKY/WX    TMP DP  RH WIND       PRES   REMARKS
OCEAN CITY     MOSUNNY   82  70  66 SW9       29.87S
SALISBURY      MOSUNNY   83  68  60 SW13      29.87S
BAY BRIDGE AP*   N/A     81  64  57 SW7       29.87S
CAMBRIDGE*     MOSUNNY   81  66  61 SW3       29.87S
EASTON*        SUNNY     82  66  57 W8        29.91S

$$

MDZ017>025-011800-
SOUTHERN MARYLAND

CITY           SKY/WX    TMP DP  RH WIND       PRES   REMARKS
PATUXENT RIVER MOSUNNY   82  63  52 W7        29.88S
ST INIGOES     SUNNY     81  69  67 S7        29.88S
LEONARDTOWN*   SUNNY     81  63  54 W7        29.90F

$$

MDZ003>005-011800-
NORTH CENTRAL MARYLAND

CITY           SKY/WX    TMP DP  RH WIND       PRES   REMARKS
FREDERICK*     PTSUNNY   81  68  65 W10       29.90S
HAGERSTOWN APT MOSUNNY   80  60  50 SW13      29.87F
WESTMINSTER*   MOSUNNY   79  63  57 W13G21    29.89R

$$

MDZ501>502-011800-
WESTERN MARYLAND

CITY           SKY/WX    TMP DP  RH WIND       PRES   REMARKS
OAKLAND*       PTSUNNY   64 N/A N/A W10G17    29.99S
CUMBERLAND*    MOSUNNY   81  59  47 W5G18     29.92S

$$

VAZ025>031-011800-
SHENANDOAH VALLEY

CITY           SKY/WX    TMP DP  RH WIND       PRES   REMARKS
WINCHESTER*    PTSUNNY   81  63  54 S6        29.88F
FRONT ROYAL*   FAIR      79  64  61 SW7       29.88F
LURAY*         CLOUDY    81  64  57 S10       29.90F
NEW MARKET*    FAIR      81  66  61 S7        29.88S
STAUNTON*      CLOUDY    80  63  54 SW9       29.94F
WAYNESBORO*    FAIR      77  63  61 SW8       29.95F

$$

WVZ021-048>050-054>055-011800-
EASTERN WEST VIRGINIA PANHANDLE

CITY           SKY/WX    TMP DP  RH WIND       PRES   REMARKS
MARTINSBURG    MOSUNNY   79  62  56 W9        29.89S
PETERSBURG*    PTSUNNY   81  57  44 NW10G17   29.92S

$$

VAZ036>039-050-011800-
CENTRAL FOOTHILLS

CITY           SKY/WX    TMP DP  RH WIND       PRES   REMARKS
CHARLOTTESVILL SUNNY     82  62  50 SW9G17    29.91S
CULPEPER*        N/A     80  64  56 S5        29.90F
ORANGE*        SUNNY     82  64  54 S12       29.92S
GORDONSVILLE*  FAIR      81  64  57 SW8G16    29.90S
WARRENTON*     FAIR      83  68  60 S7        29.89S

$$

VAZ055>057-011800-
NORTH AND CENTRAL PIEDMONT

CITY           SKY/WX    TMP DP  RH WIND       PRES   REMARKS
FREDERICKSBRG* SUNNY     86  66  52 W7        29.88F
STAFFORD*      SUNNY     81  65  58 SW6       29.93F

$$

NCZ024-NYZ072-PAZ021-071-VAZ022-071-011800-
OTHER REGIONAL OBSERVATIONS

CITY           SKY/WX    TMP DP  RH WIND       PRES   REMARKS
NEW YORK CITY  MOSUNNY   78  61  55 MISG      29.82S
PHILADELPHIA   MOSUNNY   83  61  47 SW13      29.83S
PITTSBURGH     CLOUDY    68  60  75 NW10      29.93R
ROANOKE        PTSUNNY   79  62  56 W13       29.98S
RICHMOND       PTSUNNY   85  62  46 W10       29.91S
RALEIGH        PTSUNNY   85  70  60 W7        29.97F

$$

ANZ530>537-011800-
MARINE OBSERVATIONS

STATION/POSITION TIME  TEMP    WIND        PRES
                       AIR SEA DIR/SP/G
                 (UTC) (F)     (DEG/KT/KT) (MB)
THOMAS PT LIGHT  1600   75                 1011.9R
BALT KEY BRIDGE  1600   78     220/  9/ 10 1010.8R
COVE POINT       1600   75     170/ 10/ 12 1012.7R
LEWISETTA        1600   80 80  240/  4/  6 1011.8R
SOLOMONS ISLAND  1600      79                N/A
PINEY POINT      1600          100/  2/  2   N/A

$$



USA.gov is the U.S. government's official web portal to all federal, state and local government web resources and services.